| time (UTC) | temp C | wind direction | speed KPH | gust KPH | rain 1hr cm | rain 24hr cm | rain mn cm | humidity % | barometer mb |
| 20260505000029 | 18 | 159 | 1.6 | 9.7 | 0.00 | 1.40 | 0.89 | 67 | 1018.2 |
| 20260504235029 | 18 | 332 | 1.6 | 4.8 | 0.00 | 1.40 | 0.89 | 69 | 1018.1 |
| 20260504234029 | 17 | 161 | 1.6 | 4.8 | 0.00 | 1.40 | 0.89 | 71 | 1018.0 |
| 20260504233029 | 17 | 90 | 1.6 | 6.4 | 0.00 | 1.40 | 0.89 | 69 | 1018.3 |
| 20260504232029 | 17 | 0 | 1.6 | 9.7 | 0.00 | 1.40 | 0.89 | 67 | 1018.2 |
| 20260504231029 | 17 | 25 | 1.6 | 11.3 | 0.00 | 1.40 | 0.89 | 71 | 1018.4 |
| 20260504230029 | 17 | 172 | 1.6 | 4.8 | 0.00 | 1.40 | 0.89 | 77 | 1018.4 |
| 20260504225027 | 16 | 77 | 1.6 | 6.4 | 0.00 | 1.40 | 0.89 | 80 | 1018.2 |
| 20260504224026 | 16 | 106 | 1.6 | 6.4 | 0.00 | 1.40 | 0.89 | 89 | 1018.0 |
| 20260504223027 | 15 | 280 | 1.6 | 4.8 | 0.00 | 1.40 | 0.89 | 93 | 1017.9 |
| 20260504222027 | 15 | 0 | 1.6 | 4.8 | 0.00 | 1.40 | 0.89 | 95 | 1017.8 |
| 20260504221025 | 16 | 204 | 1.6 | 6.4 | 0.00 | 1.40 | 0.89 | 95 | 1017.5 |
| 20260504220023 | 16 | 218 | 0.0 | 3.2 | 0.00 | 1.40 | 0.89 | 95 | 1017.4 |
| 20260504215024 | 16 | 0 | 0.0 | 1.6 | 0.00 | 1.40 | 0.89 | 95 | 1017.2 |
| 20260504214021 | 16 | 184 | 0.0 | 1.6 | 0.00 | 1.40 | 0.89 | 95 | 1017.0 |
| 20260504213021 | 16 | 18 | 0.0 | 3.2 | 0.00 | 1.40 | 0.89 | 95 | 1016.9 |
| 20260504212505 | 17 | 297 | 0.0 | 3.2 | 0.00 | 1.40 | 0.89 | 95 | 1016.7 |
| 20260504211020 | 17 | 196 | 1.6 | 3.2 | 0.00 | 1.40 | 0.89 | 95 | 1016.4 |
| 20260504210019 | 17 | 98 | 0.0 | 3.2 | 0.00 | 1.40 | 0.89 | 95 | 1016.5 |
| 20260504205502 | 17 | 319 | 0.0 | 3.2 | 0.00 | 1.40 | 0.89 | 95 | 1016.4 |
| 20260504204508 | 17 | 123 | 0.0 | 3.2 | 0.00 | 1.40 | 0.89 | 95 | 1016.3 |
| 20260504203020 | 17 | 0 | 0.0 | 3.2 | 0.00 | 1.40 | 0.89 | 95 | 1016.2 |
| 20260504202020 | 17 | 237 | 0.0 | 3.2 | 0.00 | 1.40 | 0.89 | 95 | 1016.0 |
| 20260504201017 | 17 | 183 | 0.0 | 3.2 | 0.00 | 1.40 | 0.89 | 95 | 1015.9 |
| 20260504200458 | 17 | 115 | 0.0 | 3.2 | 0.00 | 1.40 | 0.89 | 95 | 1015.7 |
| 20260504195458 | 17 | 142 | 1.6 | 4.8 | 0.00 | 1.40 | 0.89 | 95 | 1015.6 |
| 20260504194017 | 17 | 0 | 1.6 | 3.2 | 0.00 | 1.40 | 0.89 | 95 | 1015.7 |
| 20260504193458 | 17 | 174 | 0.0 | 4.8 | 0.00 | 1.40 | 0.89 | 95 | 1015.3 |
| 20260504192018 | 17 | 201 | 0.0 | 3.2 | 0.00 | 1.40 | 0.89 | 95 | 1015.3 |
| 20260504191014 | 17 | 223 | 0.0 | 3.2 | 0.00 | 1.40 | 0.89 | 95 | 1015.1 |
| 20260504190015 | 16 | 203 | 0.0 | 3.2 | 0.00 | 1.40 | 0.89 | 94 | 1015.0 |
| 20260504185013 | 17 | 194 | 0.0 | 3.2 | 0.00 | 1.40 | 0.89 | 94 | 1015.0 |
| 20260504184450 | 17 | 100 | 0.0 | 1.6 | 0.00 | 1.40 | 0.89 | 94 | 1015.0 |
| 20260504183451 | 17 | 188 | 0.0 | 1.6 | 0.00 | 1.40 | 0.89 | 94 | 1015.0 |
| 20260504182013 | 17 | 279 | 0.0 | 1.6 | 0.03 | 1.40 | 0.89 | 94 | 1014.8 |
| 20260504181014 | 17 | 171 | 0.0 | 3.2 | 0.03 | 1.40 | 0.89 | 94 | 1014.8 |
| 20260504180011 | 17 | 196 | 0.0 | 1.6 | 0.03 | 1.40 | 0.89 | 94 | 1014.9 |
| 20260504175451 | 17 | 84 | 0.0 | 3.2 | 0.05 | 1.40 | 0.89 | 94 | 1015.1 |
| 20260504174449 | 17 | 166 | 0.0 | 3.2 | 0.10 | 1.40 | 0.89 | 94 | 1015.0 |
| 20260504173011 | 17 | 146 | 0.0 | 1.6 | 0.18 | 1.40 | 0.86 | 94 | 1014.8 |
| 20260504172011 | 17 | 165 | 0.0 | 1.6 | 0.23 | 1.37 | 0.86 | 94 | 1015.0 |
| 20260504171454 | 17 | 202 | 0.0 | 3.2 | 0.33 | 1.37 | 0.86 | 94 | 1015.0 |
| 20260504170443 | 17 | 191 | 0.0 | 3.2 | 0.38 | 1.37 | 0.84 | 94 | 1015.0 |
| 20260504140956 | 18 | 201 | 1.6 | 3.2 | 0.08 | 0.53 | 0.03 | 93 | 1014.5 |
| 20260504100408 | 20 | 185 | 0.0 | 3.2 | 0.13 | 0.25 | 0.25 | 91 | 1016.1 |
| 20260504081928 | 21 | 151 | 0.0 | 1.6 | 0.03 | 0.10 | 0.10 | 87 | 1015.1 |
| 20260504080927 | 21 | 219 | 0.0 | 3.2 | 0.00 | 0.08 | 0.08 | 86 | 1015.0 |
| 20260504070354 | 21 | 237 | 0.0 | 4.8 | 0.08 | 0.08 | 0.08 | 85 | 1014.3 |
| 20260504045910 | 24 | 211 | 1.6 | 4.8 | 0.00 | 0.00 | 0.00 | 72 | 1014.0 |
| 20260504044909 | 24 | 0 | 0.0 | 3.2 | 0.00 | 0.00 | 0.00 | 71 | 1014.0 |
| 20260504044358 | 25 | 141 | 0.0 | 4.8 | 0.00 | 0.00 | 0.00 | 70 | 1014.0 |
| 20260504042908 | 25 | 0 | 0.0 | 3.2 | 0.00 | 0.00 | 0.00 | 68 | 1014.1 |
| 20260504041908 | 26 | 0 | 0.0 | 3.2 | 0.00 | 0.00 | 0.00 | 66 | 1014.3 |
| 20260504040908 | 26 | 255 | 0.0 | 3.2 | 0.00 | 0.00 | 0.00 | 63 | 1014.3 |
| 20260504035908 | 27 | 54 | 1.6 | 3.2 | 0.00 | 0.00 | 0.00 | 62 | 1014.3 |
| 20260504034908 | 27 | 106 | 1.6 | 3.2 | 0.00 | 0.00 | 0.00 | 58 | 1014.4 |
| 20260504033908 | 28 | 0 | 1.6 | 4.8 | 0.00 | 0.00 | 0.00 | 58 | 1014.4 |
| 20260504032905 | 27 | 352 | 1.6 | 6.4 | 0.00 | 0.00 | 0.00 | 58 | 1014.5 |
| 20260504031906 | 27 | 50 | 1.6 | 8.0 | 0.00 | 0.00 | 0.00 | 58 | 1014.6 |
| 20260504030906 | 27 | 242 | 1.6 | 6.4 | 0.00 | 0.00 | 0.00 | 59 | 1014.7 |
| 20260504025905 | 27 | 0 | 1.6 | 4.8 | 0.00 | 0.00 | 0.00 | 60 | 1014.7 |
| 20260504024906 | 27 | 82 | 1.6 | 8.0 | 0.00 | 0.00 | 0.00 | 60 | 1014.8 |
| 20260504023903 | 27 | 61 | 1.6 | 4.8 | 0.00 | 0.00 | 0.00 | 59 | 1015.0 |
| 20260504022900 | 26 | 17 | 1.6 | 6.4 | 0.00 | 0.00 | 0.00 | 61 | 1015.2 |
| 20260504021900 | 26 | 0 | 1.6 | 8.0 | 0.00 | 0.00 | 0.00 | 63 | 1015.3 |
| 20260504020857 | 26 | 102 | 1.6 | 4.8 | 0.00 | 0.00 | 0.00 | 61 | 1015.6 |
| 20260504015857 | 27 | 60 | 1.6 | 9.7 | 0.00 | 0.00 | 0.00 | 61 | 1016.0 |
| 20260504015332 | 26 | 165 | 1.6 | 8.0 | 0.00 | 0.00 | 0.00 | 62 | 1016.1 |
| 20260504013858 | 26 | 185 | 1.6 | 6.4 | 0.00 | 0.00 | 0.00 | 62 | 1016.3 |
| 20260504012855 | 26 | 27 | 1.6 | 8.0 | 0.00 | 0.00 | 0.00 | 62 | 1016.4 |
| 20260504011854 | 25 | 0 | 1.6 | 6.4 | 0.00 | 0.00 | 0.00 | 65 | 1016.4 |
| 20260504010854 | 25 | 203 | 3.2 | 11.3 | 0.00 | 0.00 | 0.00 | 65 | 1016.4 |
| 20260504005852 | 25 | 324 | 1.6 | 6.4 | 0.00 | 0.00 | 0.00 | 66 | 1016.5 |
| 20260504004853 | 23 | 0 | 3.2 | 9.7 | 0.00 | 0.00 | 0.00 | 70 | 1016.6 |
| 20260504003853 | 23 | 16 | 3.2 | 12.9 | 0.00 | 0.00 | 0.00 | 69 | 1016.7 |
| 20260504003344 | 23 | 33 | 3.2 | 11.3 | 0.00 | 0.00 | 0.00 | 69 | 1016.6 |
| 20260504001850 | 25 | 336 | 1.6 | 9.7 | 0.00 | 0.00 | 0.00 | 68 | 1016.7 |
| 20260504000851 | 24 | 219 | 1.6 | 9.7 | 0.00 | 0.00 | 0.00 | 68 | 1016.8 |